sat.trackr.live / text

‹ back to catalog

STARLINK-11649 [DTC]

NORAD 64069 · 2025-107F

PAYLOAD ACTIVE UNKNOWN

§ Identity

Operator
Country
US
Launch date
2025-05-21
Launch site
AFETR
Launch vehicle
Mass (kg)
RCS (m²)

Purposes: comms

External: N2YO · Heavens-Above · Gunter

§ Orbital elements

Epoch: 2026-05-25T01:38:52.613664Z

Period
91.66 min
Inclination
43.0040°
Eccentricity
0.0002905
Mean motion
15.71092062 rev/d
Perigee alt
353.8 km
Apogee alt
357.7 km
Semi-major
6,733.9 km
B*
1.5420e-3
RAAN
358.4574°
Arg perigee
303.2744°
Mean anomaly
56.7845°
Rev number
5,930

§ Raw data

STARLINK-11649 [DTC]1 64069U 25107F   26145.06866451  .00204522  00000+0  15420-2 0  99922 64069  43.0040 358.4574 0002905 303.2744  56.7845 15.71092062 59308

JSON: /api/v1/satellites/64069 · /tle

For live sub-satellite position, see the globe view (requires WebGL).

§ Visibility from observer

Set your observer location to see the next 7 days of passes ≥ 10°. The values pass through the URL so the page stays shareable.

No JS? Fill the form by hand. The geolocation button needs JavaScript.